Preview of NWS' New Version of Forecast
This preview is not operational and should not be used for support decisions.

Regional Weather Roundup (RWR)

Issued by Philadelphia/Mt Holly (PHI)

                            
000
ASUS41 KPHI 232012
RWRPHI

REGIONAL WEATHER ROUNDUP
NATIONAL WEATHER SERVICE MOUNT HOLLY NJ
400 PM EDT SAT MAR 23 2019

NOTE:  "FAIR" INDICATES FEW OR NO CLOUDS BELOW 12,000 FEET WITH NO
SIGNIFICANT WEATHER AND/OR OBSTRUCTIONS TO VISIBILITY.

 * = STATION DOES NOT REPORT PRECIPITATION (E.G. RAIN, SNOW, ETC.) 
        OR FOG.

NJZ015>026-232100-
SOUTHERN NEW JERSEY
  
CITY           SKY/WX    TMP DP  RH WIND       PRES   REMARKS
POMONA         FAIR      52  17  25 NW24G38   29.99R                  
WILDWOOD*      FAIR      49  23  36 NW16G28   30.04S                  
MILLVILLE      FAIR      51  17  26 W25G33    30.03R                  
MOUNT HOLLY    FAIR      50  13  22 W15G23    30.01R                  
TRENTON        FAIR      49  12  22 NW13G25   29.99R                  

$$
NJZ001>014-232100-
NORTHERN NEW JERSEY
  
CITY           SKY/WX    TMP DP  RH WIND       PRES   REMARKS
SUSSEX         FAIR      44  17  33 NW13G24   29.97R                  
ANDOVER*         N/A     44  12  27 NW13G25   29.97R                  
MORRISTOWN     MOSUNNY   46  16  29 NW22G36   29.96R                  
NEWARK         FAIR      49  11  21 W26G36    29.94R                  
TETERBORO      FAIR      48  20  32 W20G30    29.93R                  
CALDWELL       FAIR      47  12  24 NW23G32   29.95R                  
SOMERVILLE     FAIR      49   9  19 NW24G33   29.97R                  
TOMS RIVER*    FAIR      50  16  25 NW20G26   29.96R                  

$$
PAZ043-044-047-054-055-060>062-066>071-232100-
EASTERN PENNSYLVANIA
  
CITY           SKY/WX    TMP DP  RH WIND       PRES   REMARKS
PHILADELPHIA   FAIR      51  11  20 W18G28    30.03S                  
NORTH PHILA    FAIR      51  12  21 NW22G30   30.02R                  
BLUE BELL*     FAIR      46  18  31 W13G21    30.04R                  
DOYLESTOWN     FAIR      50  12  21 NW12G29   30.00R                  
QUAKERTOWN*    SUNNY     48  14  25 W9G17     30.02R                  
PERKASIE*      FAIR      46  12  25 NW20G31   30.02R                  
POTTSTOWN      FAIR      48  18  30 W14G23    30.04R                  
LANCASTER      FAIR      51  18  27 NW17G25   30.07R                  
COATESVILLE    FAIR      48  16  27 NW21G28   30.06R                  
READING          N/A     50  15  24 NW22G33   30.04R                  
ALLENTOWN      FAIR      51  12  21 W14G23    30.01R                  
MOUNT POCONO   FAIR      35  12  38 NW22G37   29.94S WCI  23          
HAZLETON       FAIR      43   5  21 NW16G25   30.03R                  
LEHIGHTON      FAIR      46  10  23 W13G21    30.03R                  
WILKES BARRE   FAIR      43  14  31 NW17      30.03R                  

$$
DEZALL-MDZ008-012-015-019-020-232100-
DELAWARE AND EASTERN MARYLAND
  
CITY           SKY/WX    TMP DP  RH WIND       PRES   REMARKS
WILMINGTON     FAIR      51  15  23 W24G32    30.06R                  
GEORGETOWN     FAIR      53  18  25 W9G22     30.07R                  
EASTON         SUNNY     52  18  25 W20G26    30.15R                  
PATUXENT       FAIR      53  19  26 NW22G32   30.12                   
OCEAN CITY     FAIR      50  25  37 W17G30    30.07R                  
WALLOPS ISLAND FAIR      52  18  26 NW22G33   30.10R                  
CAMBRIDGE      SUNNY     50  19  29 W16G32    30.12S                  
SALISBURY      FAIR      49  21  33 W20G29    30.09R                  

$$
PAZ001-021-NYZ056-072-MDZ011-DCZ001-232100-
OTHER NEARBY LOCATIONS
  
CITY           SKY/WX    TMP DP  RH WIND       PRES   REMARKS
HARRISBURG     FAIR      51  15  23 NW16      30.09R                  
STATE COLLEGE  SUNNY     45  10  24 W18G28    30.12R                  
WILLIAMSPORT   FAIR      49   2  14 NW20G26   30.07R                  
BINGHAMTON     FAIR      32  12  43 NW18G30   30.01R WCI  20          
NEW YORK CITY  FAIR      47  17  30 W10G29    29.95R                  
BALTIMORE      FAIR      51  18  27 W16G30    30.11S                  
WASHINGTON DC  FAIR      53  17  24 W20G30    30.15S                  

$$